Arcata, CA

5:13 PM PDT on April 24, 2017 (GMT -0700)
Arcata

Weather History for KACV - August, 2014

Change the Weather History Date:

Tuesday, August 5, 2014

  Actual Average Record
Temperature  
Mean Temperature 58 °F -  
Max Temperature 64 °F 62 °F 69 °F (2015)
Min Temperature 55 °F 50 °F 41 °F (2002)
Degree Days  
Heating Degree Days 6    
Growing Degree Days 8 (Base 50)    
Moisture  
Dew Point 54 °F    
Average Humidity 90    
Maximum Humidity 100    
Minimum Humidity 75    
Precipitation  
Precipitation 0.00 in - - ()
Sea Level Pressure  
Sea Level Pressure 30.08 in    
Wind  
Wind Speed 4 mph (WSW)    
Max Wind Speed 12 mph    
Max Gust Speed -    
Visibility 5 miles    
Events Fog    
Averages and records for this station are not official NWS values.
T = Trace of Precipitation, MM = Missing Value Source: NWS Daily Summary

Daily Weather History Graph

Daily Weather History Graph

Search for Another Location

Airport or City:

Trip Planner

Search our weather history database for the weather conditions in past years. The results will help you decide how hot, cold, wet, or windy it might be!

Date:

Astronomy

Aug. 05, 2014 Rise Set
Actual Time 6:16 AM PDT 8:27 PM PDT
Civil Twilight 5:45 AM PDT 8:58 PM PDT
Nautical Twilight 5:08 AM PDT 9:35 PM PDT
Astronomical Twilight 4:27 AM PDT 10:16 PM PDT
Moon 3:49 PM PDT (8/5) 1:08 AM PDT (8/5)
Length of Visible Light 15h 12m
Length of Day
14h 11m
Waxing Gibbous, 69% of the Moon is Illuminated
Aug 5
Waxing Gibbous
Aug 10
Full
Aug 17
Last Quarter
Aug 25
New
Sep 2
First Quarter

Hourly Weather History & Observations

Time (PDT) Temp. Dew Point Humidity Pressure Visibility Wind Dir Wind Speed Gust Speed Precip Events Conditions
12:53 AM 57.9 °F 54.0 °F 87% 30.03 in 10.0 mi SE 5.8 mph - N/A   Overcast
1:53 AM 57.9 °F 54.0 °F 87% 30.02 in 10.0 mi Calm Calm - N/A   Overcast
2:53 AM 57.0 °F 54.0 °F 89% 30.03 in 8.0 mi Calm Calm - N/A   Overcast
3:53 AM 55.9 °F 54.0 °F 93% 30.03 in 5.0 mi Calm Calm - N/A   Overcast
4:53 AM 55.9 °F 54.0 °F 93% 30.05 in 5.0 mi WNW 3.5 mph - N/A   Overcast
5:53 AM 55.9 °F 54.0 °F 93% 30.05 in 6.0 mi NW 3.5 mph - N/A   Overcast
6:08 AM 55.9 °F 54.0 °F 93% 30.03 in 6.0 mi WNW 3.5 mph - N/A   Overcast
6:18 AM 55.9 °F 55.0 °F 97% 30.04 in 2.5 mi Calm Calm - N/A   Overcast
6:29 AM 55.9 °F 54.0 °F 93% 30.04 in 0.8 mi NW 4.6 mph - N/A   Overcast
6:44 AM 55.9 °F 54.0 °F 93% 30.04 in 0.2 mi NNW 5.8 mph - N/A Fog Fog
6:53 AM 55.9 °F 54.0 °F 93% 30.06 in 0.2 mi NW 5.8 mph - N/A Fog Fog
7:12 AM 55.9 °F 54.0 °F 93% 30.05 in 0.2 mi NNW 5.8 mph - N/A Fog Fog
7:41 AM 55.9 °F 55.0 °F 97% 30.06 in 0.8 mi Calm Calm - N/A   Mist
7:53 AM 55.9 °F 55.9 °F 100% 30.07 in 1.0 mi Calm Calm - N/A   Overcast
8:34 AM 55.9 °F 55.0 °F 97% 30.06 in 0.5 mi WSW 3.5 mph - N/A Fog Fog
8:53 AM 55.9 °F 55.0 °F 97% 30.08 in 0.5 mi WSW 3.5 mph - N/A Fog Fog
9:01 AM 55.9 °F 55.0 °F 97% 30.07 in 0.2 mi WSW 3.5 mph - N/A Fog Fog
9:13 AM 55.9 °F 55.0 °F 97% 30.07 in 0.8 mi SW 3.5 mph - N/A   Mist
9:27 AM 57.0 °F 55.0 °F 93% 30.07 in 1.0 mi WSW 3.5 mph - N/A   Overcast
9:51 AM 55.4 °F 53.6 °F 94% 30.07 in 3.0 mi West 4.6 mph - N/A   Overcast
9:53 AM 55.9 °F 54.0 °F 93% 30.09 in 3.0 mi West 4.6 mph - N/A   Overcast
10:00 AM 55.9 °F 54.0 °F 93% 30.07 in 1.8 mi West 5.8 mph - N/A   Overcast
10:30 AM 55.9 °F 55.0 °F 97% 30.07 in 3.0 mi SSW 4.6 mph - N/A   Overcast
10:53 AM 55.9 °F 55.0 °F 97% 30.09 in 10.0 mi SW 6.9 mph - N/A   Overcast
11:43 AM 59.0 °F 55.0 °F 87% 30.08 in 10.0 mi South 8.1 mph - N/A   Overcast
11:53 AM 60.1 °F 55.0 °F 83% 30.09 in 10.0 mi SSW 8.1 mph - N/A   Overcast
12:53 PM 61.0 °F 54.0 °F 78% 30.10 in 10.0 mi SW 9.2 mph - N/A   Overcast
1:53 PM 62.1 °F 55.0 °F 78% 30.09 in 10.0 mi SSW 9.2 mph - N/A   Overcast
2:08 PM 62.1 °F 54.0 °F 75% 30.08 in 10.0 mi SW 10.4 mph - N/A   Overcast
2:34 PM 60.1 °F 53.1 °F 78% 30.07 in 10.0 mi SW 10.4 mph - N/A   Partly Cloudy
2:53 PM 60.1 °F 54.0 °F 80% 30.09 in 10.0 mi SW 9.2 mph - N/A   Clear
3:53 PM 61.0 °F 53.1 °F 75% 30.09 in 10.0 mi SW 11.5 mph - N/A   Clear
4:02 PM 61.0 °F 54.0 °F 78% 30.07 in 10.0 mi SW 11.5 mph - N/A   Partly Cloudy
4:35 PM 60.1 °F 53.1 °F 78% 30.08 in 10.0 mi SW 10.4 mph - N/A   Mostly Cloudy
4:53 PM 61.0 °F 54.0 °F 78% 30.09 in 10.0 mi SSW 9.2 mph - N/A   Overcast
5:27 PM 62.1 °F 54.0 °F 75% 30.09 in 10.0 mi SW 11.5 mph - N/A   Scattered Clouds
5:53 PM 62.1 °F 54.0 °F 75% 30.11 in 10.0 mi South 10.4 mph - N/A   Clear
6:53 PM 59.0 °F 53.1 °F 81% 30.12 in 10.0 mi SW 8.1 mph - N/A   Clear
7:30 PM 55.9 °F 53.1 °F 90% 30.10 in 9.0 mi WSW 5.8 mph - N/A   Mostly Cloudy
7:48 PM 55.4 °F 51.8 °F 88% 30.11 in 1.8 mi West 4.6 mph - N/A   Overcast
7:53 PM 55.0 °F 53.1 °F 93% 30.12 in 1.0 mi West 4.6 mph - N/A   Overcast
8:08 PM 55.0 °F 53.1 °F 93% 30.11 in 1.8 mi Calm Calm - N/A   Overcast
8:17 PM 55.0 °F 53.1 °F 93% 30.11 in 2.5 mi NW 3.5 mph - N/A   Overcast
8:29 PM 55.0 °F 53.1 °F 93% 30.11 in 1.0 mi WNW 3.5 mph - N/A   Overcast
8:36 PM 55.0 °F 53.1 °F 93% 30.11 in 0.5 mi WNW 3.5 mph - N/A Fog Fog
9:12 PM 55.0 °F 54.0 °F 96% 30.11 in 1.2 mi Calm Calm - N/A   Overcast
9:53 PM 55.0 °F 54.0 °F 96% 30.14 in 6.0 mi Calm Calm - N/A   Overcast
10:18 PM 55.0 °F 53.1 °F 93% 30.12 in 1.8 mi Calm Calm - N/A   Overcast
10:40 PM 55.0 °F 53.1 °F 93% 30.12 in 3.0 mi Calm Calm - N/A   Overcast
10:53 PM 55.0 °F 53.1 °F 93% 30.14 in 4.0 mi Calm Calm - N/A   Overcast
11:06 PM 55.0 °F 54.0 °F 96% 30.12 in 1.8 mi Calm Calm - N/A   Overcast
11:32 PM 55.0 °F 54.0 °F 96% 30.12 in 0.5 mi Calm Calm - N/A Fog Fog
11:53 PM 55.0 °F 54.0 °F 96% 30.13 in 0.5 mi Calm Calm - N/A Fog Fog